Trapani, Italy

6:12 PM CEST on August 20, 2017 (GMT +0200)
Birgi Mil

Weather History for LICT - February, 2013

Change the Weather History Date:

Monday, February 25, 2013

  Actual Average Record
Temperature  
Mean Temperature 47 °F -  
Max Temperature 54 °F 62 °F 69 °F (2004)
Min Temperature 40 °F 47 °F 40 °F (2013)
Degree Days  
Heating Degree Days 18    
Moisture  
Dew Point 42 °F    
Average Humidity 85    
Maximum Humidity 93    
Minimum Humidity 57    
Precipitation  
Precipitation 0.02 in 0.06 in - ()
Sea Level Pressure  
Sea Level Pressure 30.00 in    
Wind  
Wind Speed 3 mph ()    
Max Wind Speed 7 mph    
Max Gust Speed -    
Visibility 6.5 miles    
Events Rain    
Averages and records for this station are not official NWS values.
T = Trace of Precipitation, MM = Missing Value Source: Averaged Metar Reports

Daily Weather History Graph

Daily Weather History Graph

Search for Another Location

Airport or City:

Trip Planner

Search our weather history database for the weather conditions in past years. The results will help you decide how hot, cold, wet, or windy it might be!

Date:

Astronomy

Feb. 25, 2013 Rise Set
Actual Time 6:47 AM CET 5:59 PM CET
Civil Twilight 6:20 AM CET 6:25 PM CET
Nautical Twilight 5:50 AM CET 6:56 PM CET
Astronomical Twilight 5:19 AM CET 7:26 PM CET
Moon 5:54 PM CET (2/25) 6:08 AM CET (2/25)
Length of Visible Light 12h 05m
Length of Day
11h 12m
Full, 100% of the Moon is Illuminated
Feb 25
Full
Feb 25
Full
Mar 4
Last Quarter
Mar 11
New
Mar 19
First Quarter

Hourly Weather History & Observations

Time (CET) Temp. Windchill Dew Point Humidity Pressure Visibility Wind Dir Wind Speed Gust Speed Precip Events Conditions
12:55 AM 42.8 °F 40.1 °F 41.0 °F 93% 30.01 in 6.2 mi SE 4.6 mph - N/A   Scattered Clouds
1:00 AM 43 °F - 41 °F 88% 30.01 in 7 mi SE 4.6 mph - -   Partly Cloudy
1:55 AM 42.8 °F 40.1 °F 41.0 °F 93% 30.01 in 6.2 mi ESE 4.6 mph - N/A   Scattered Clouds
2:55 AM 41.0 °F 39.0 °F 39.2 °F 93% 29.98 in 6.2 mi SE 3.5 mph - N/A   Scattered Clouds
3:55 AM 41.0 °F 39.0 °F 37.4 °F 87% 29.95 in 6.2 mi SE 3.5 mph - N/A   Scattered Clouds
4:55 AM 41.0 °F 36.4 °F 39.2 °F 93% 29.98 in 6.2 mi SE 6.9 mph - N/A   Scattered Clouds
5:55 AM 41.0 °F - 39.2 °F 93% 29.98 in 6.2 mi SE 1.2 mph - N/A   Scattered Clouds
6:55 AM 42.8 °F 39.3 °F 41.0 °F 93% 29.98 in 6.2 mi ESE 5.8 mph - N/A   Scattered Clouds
7:00 AM 43 °F - 41 °F 92% 29.98 in 7 mi ESE 5.8 mph - -   Partly Cloudy
7:55 AM 44.6 °F 40.7 °F 42.8 °F 93% 29.98 in 6.2 mi SE 6.9 mph - N/A   Scattered Clouds
8:55 AM 48.2 °F - 44.6 °F 87% 29.98 in 6.2 mi SE 4.6 mph - N/A   Scattered Clouds
9:55 AM 51.8 °F - 44.6 °F 76% 30.01 in 6.2 mi South 2.3 mph - N/A   Scattered Clouds
10:55 AM 51.8 °F - 44.6 °F 76% 30.01 in 6.2 mi SSE 3.5 mph - N/A   Scattered Clouds
11:55 AM 53.6 °F - 42.8 °F 67% 30.01 in 6.2 mi South 5.8 mph - N/A   Scattered Clouds
12:55 PM 53.6 °F - 42.8 °F 67% 30.01 in 6.2 mi WSW 1.2 mph - N/A   Scattered Clouds
1:00 PM 54 °F - 43 °F 57% 30.01 in 11 mi WSW 1.2 mph - -   Partly Cloudy
1:55 PM 53.6 °F - 42.8 °F 67% 29.98 in 6.2 mi SW 5.8 mph - N/A   Scattered Clouds
2:55 PM 51.8 °F - 39.2 °F 62% 29.98 in 6.2 mi South 4.6 mph - N/A   Scattered Clouds
3:55 PM 51.8 °F - 46.4 °F 82% 29.98 in 6.2 mi West 6.9 mph - N/A Rain Light Rain
4:55 PM 48.2 °F - 44.6 °F 87% 30.01 in 6.2 mi West 5.8 mph - N/A Rain Light Rain
5:55 PM 46.4 °F - 44.6 °F 93% 30.01 in 6.2 mi WSW 1.2 mph - N/A Rain Light Rain
6:55 PM 46.4 °F - 44.6 °F 93% 30.01 in 6.2 mi SE 1.2 mph - N/A Rain Light Rain
7:00 PM 47 °F - 44 °F 86% 30.01 in 9 mi SE 1.2 mph - - Rain Light Rain
7:55 PM 46.4 °F - 44.6 °F 93% 30.01 in 6.2 mi Calm Calm - N/A   Scattered Clouds
8:55 PM 46.4 °F - 44.6 °F 93% 30.01 in 6.2 mi Calm Calm - N/A   Scattered Clouds
9:55 PM 46.4 °F - 42.8 °F 87% 30.04 in 6.2 mi East 1.2 mph - N/A   Scattered Clouds
10:55 PM 44.6 °F - 42.8 °F 93% 30.01 in 6.2 mi Calm Calm - N/A   Scattered Clouds
11:55 PM 42.8 °F - 41.0 °F 93% 30.01 in 6.2 mi East 1.2 mph - N/A   Scattered Clouds